Weather History for Hazen, ND

Change the Weather History Date:

Friday, October 26, 2012

  Actual Average (KN60) Record (KN60)
Temperature  
Mean Temperature 24 °F -  
Max Temperature 32 °F 46 °F 66 °F (1998)
Min Temperature 17 °F 27 °F 12 °F (2001)
Degree Days  
Heating Degree Days 40    
Moisture  
Dew Point 18 °F    
Average Humidity 63    
Maximum Humidity 86    
Minimum Humidity 48    
Precipitation  
Precipitation 0.00 in - - ()
Sea Level Pressure  
Sea Level Pressure 30.31 in    
Wind  
Wind Speed 15 mph (West)    
Max Wind Speed 23 mph    
Max Gust Speed 29 mph    
Visibility 10 miles    
Events Rain , Snow    
Averages and records for this station are not official NWS values.
T = Trace of Precipitation, MM = Missing Value Source: NWS Daily Summary

Daily Weather History Graph

Daily Weather History Graph

Search for Another Location

Airport:

Trip Planner

Search our weather history database for the weather conditions in past years. The results will help you decide how hot, cold, wet, or windy it might be!

Date:

Astronomy

Oct. 26, 2012 Rise Set
Actual Time 8:21 AM CDT 6:38 PM CDT
Civil Twilight 7:49 AM CDT 7:09 PM CDT
Nautical Twilight 7:14 AM CDT 7:45 PM CDT
Astronomical Twilight 6:38 AM CDT 8:20 PM CDT
Moon 5:03 PM CDT (10/26) 5:09 AM CDT (10/26)
Length of Visible Light 11h 19m
Length of Day
10h 16m
Waxing Gibbous, 91% of the Moon is Illuminated
Oct 26
Waxing Gibbous
Oct 29
Full
Nov 6
Last Quarter
Nov 13
New
Nov 20
First Quarter

Hourly Weather History & Observations

Time (CDT) Temp. Windchill Dew Point Humidity Pressure Visibility Wind Dir Wind Speed Gust Speed Precip Events Conditions
12:35 AM 32.0 °F 20.1 °F 19.4 °F 60% 30.28 in 10.0 mi WNW 19.6 mph 28.8 mph N/A   Overcast
12:55 AM 32.0 °F 20.5 °F 19.4 °F 60% 30.29 in 10.0 mi WNW 18.4 mph 26.5 mph N/A   Overcast
1:15 AM 32.0 °F 21.6 °F 19.4 °F 60% 30.29 in 10.0 mi WNW 15.0 mph 25.3 mph N/A   Overcast
1:35 AM 32.0 °F 21.6 °F 19.4 °F 60% 30.29 in 10.0 mi WNW 15.0 mph 23.0 mph N/A   Overcast
1:55 AM 32.0 °F 20.5 °F 19.4 °F 60% 30.29 in 10.0 mi WNW 18.4 mph 21.9 mph N/A   Overcast
2:15 AM 32.0 °F 23.0 °F 19.4 °F 60% 30.30 in 10.0 mi WNW 11.5 mph 24.2 mph N/A   Overcast
2:35 AM 32.0 °F 22.5 °F 19.4 °F 60% 30.30 in 10.0 mi WNW 12.7 mph 21.9 mph N/A Rain Light Rain
2:55 AM 32.0 °F 21.6 °F 19.4 °F 60% 30.30 in 10.0 mi WNW 15.0 mph - N/A   Overcast
3:15 AM 32.0 °F 20.8 °F 19.4 °F 60% 30.30 in 10.0 mi West 17.3 mph 21.9 mph N/A   Overcast
3:35 AM 32.0 °F 20.1 °F 19.4 °F 60% 30.30 in 10.0 mi West 19.6 mph 26.5 mph N/A   Overcast
3:55 AM 32.0 °F 20.8 °F 21.2 °F 64% 30.30 in 10.0 mi West 17.3 mph - N/A   Overcast
4:15 AM 32.0 °F 19.8 °F 23.0 °F 69% 30.31 in 10.0 mi West 20.7 mph 26.5 mph N/A   Overcast
4:35 AM 30.2 °F 16.8 °F 23.0 °F 75% 30.31 in 10.0 mi West 23.0 mph 27.6 mph N/A   Overcast
4:55 AM 30.2 °F 18.9 °F 23.0 °F 75% 30.32 in 10.0 mi West 16.1 mph - N/A   Overcast
5:15 AM 28.4 °F 15.4 °F 23.0 °F 80% 30.32 in 10.0 mi West 19.6 mph 24.2 mph N/A Snow Light Snow
5:35 AM 28.4 °F 16.6 °F 23.0 °F 80% 30.32 in 10.0 mi West 16.1 mph 20.7 mph N/A   Overcast
5:55 AM 28.4 °F 16.6 °F 21.2 °F 74% 30.32 in 10.0 mi West 16.1 mph - N/A   Overcast
6:15 AM 28.4 °F 16.6 °F 21.2 °F 74% 30.33 in 10.0 mi WNW 16.1 mph 21.9 mph N/A   Overcast
6:35 AM 28.4 °F 17.0 °F 19.4 °F 69% 30.33 in 10.0 mi West 15.0 mph - N/A   Overcast
6:55 AM 28.4 °F 17.0 °F 19.4 °F 69% 30.33 in 10.0 mi West 15.0 mph - N/A   Overcast
7:15 AM 28.4 °F 16.6 °F 19.4 °F 69% 30.34 in 10.0 mi West 16.1 mph 20.7 mph N/A   Overcast
7:55 AM 28.4 °F 17.5 °F 19.4 °F 69% 30.34 in 10.0 mi West 13.8 mph 19.6 mph N/A   Overcast
8:35 AM 28.4 °F 18.0 °F 17.6 °F 64% 30.35 in 10.0 mi West 12.7 mph - N/A   Overcast
8:55 AM 28.4 °F 18.0 °F 17.6 °F 64% 30.35 in 10.0 mi West 12.7 mph - N/A   Overcast
9:15 AM 28.4 °F 16.6 °F 17.6 °F 64% 30.36 in 10.0 mi West 16.1 mph 19.6 mph N/A   Overcast
9:35 AM 28.4 °F 18.0 °F 19.4 °F 69% 30.36 in 10.0 mi West 12.7 mph - N/A   Overcast
10:15 AM 28.4 °F 17.5 °F 19.4 °F 69% 30.37 in 10.0 mi West 13.8 mph - N/A   Overcast
10:35 AM 30.2 °F 20.2 °F 19.4 °F 64% 30.37 in 10.0 mi West 12.7 mph 18.4 mph N/A   Overcast
10:55 AM 30.2 °F 19.8 °F 19.4 °F 64% 30.37 in 10.0 mi West 13.8 mph - N/A   Overcast
11:15 AM 30.2 °F 19.8 °F 19.4 °F 64% 30.37 in 10.0 mi West 13.8 mph - N/A   Overcast
11:35 AM 32.0 °F 22.5 °F 19.4 °F 60% 30.36 in 10.0 mi WNW 12.7 mph 18.4 mph N/A   Overcast
11:55 AM 32.0 °F 22.1 °F 19.4 °F 60% 30.36 in 10.0 mi WNW 13.8 mph 19.6 mph N/A   Overcast
12:15 PM 32.0 °F 22.5 °F 19.4 °F 60% 30.36 in 10.0 mi WNW 12.7 mph - N/A   Overcast
12:35 PM 32.0 °F 22.1 °F 19.4 °F 60% 30.35 in 10.0 mi WNW 13.8 mph 20.7 mph N/A   Overcast
12:55 PM 32.0 °F 21.6 °F 17.6 °F 55% 30.34 in 10.0 mi WNW 15.0 mph 24.2 mph N/A   Overcast
1:15 PM 32.0 °F 20.1 °F 15.8 °F 51% 30.34 in 10.0 mi West 19.6 mph - N/A   Overcast
1:35 PM 32.0 °F 21.2 °F 17.6 °F 55% 30.33 in 10.0 mi West 16.1 mph 20.7 mph N/A   Overcast
1:55 PM 32.0 °F 20.5 °F 17.6 °F 55% 30.32 in 10.0 mi West 18.4 mph 25.3 mph N/A   Overcast
2:15 PM 32.0 °F 20.1 °F 17.6 °F 55% 30.32 in 10.0 mi West 19.6 mph 24.2 mph N/A   Overcast
2:35 PM 32.0 °F 21.2 °F 15.8 °F 51% 30.31 in 10.0 mi West 16.1 mph - N/A   Overcast
2:55 PM 32.0 °F 22.5 °F 15.8 °F 51% 30.31 in 10.0 mi West 12.7 mph - N/A   Overcast
3:15 PM 32.0 °F 22.1 °F 15.8 °F 51% 30.31 in 10.0 mi WNW 13.8 mph 21.9 mph N/A   Overcast
3:35 PM 32.0 °F 20.8 °F 14.0 °F 48% 30.30 in 10.0 mi WNW 17.3 mph 20.7 mph N/A   Overcast
3:55 PM 32.0 °F 22.1 °F 15.8 °F 51% 30.30 in 10.0 mi West 13.8 mph 20.7 mph N/A   Overcast
4:15 PM 32.0 °F 20.8 °F 15.8 °F 51% 30.29 in 10.0 mi West 17.3 mph - N/A   Overcast
4:35 PM 32.0 °F 21.2 °F 15.8 °F 51% 30.29 in 10.0 mi West 16.1 mph 20.7 mph N/A   Overcast
4:55 PM 32.0 °F 22.1 °F 15.8 °F 51% 30.29 in 10.0 mi West 13.8 mph - N/A   Overcast
5:15 PM 32.0 °F 22.5 °F 15.8 °F 51% 30.29 in 10.0 mi West 12.7 mph 18.4 mph N/A   Overcast
5:35 PM 32.0 °F 22.5 °F 15.8 °F 51% 30.29 in 10.0 mi West 12.7 mph - N/A   Overcast
5:55 PM 32.0 °F 22.5 °F 15.8 °F 51% 30.28 in 10.0 mi West 12.7 mph - N/A   Overcast
6:15 PM 30.2 °F 21.3 °F 15.8 °F 55% 30.28 in 10.0 mi West 10.4 mph - N/A   Overcast
6:35 PM 30.2 °F 22.6 °F 15.8 °F 55% 30.28 in 10.0 mi WSW 8.1 mph - N/A   Overcast
6:55 PM 28.4 °F 20.4 °F 15.8 °F 59% 30.29 in 10.0 mi WSW 8.1 mph - N/A   Overcast
7:15 PM 28.4 °F 21.2 °F 15.8 °F 59% 30.29 in 10.0 mi WSW 6.9 mph - N/A   Overcast
7:35 PM 28.4 °F 21.2 °F 15.8 °F 59% 30.28 in 10.0 mi WSW 6.9 mph - N/A   Overcast
7:55 PM 28.4 °F 22.2 °F 15.8 °F 59% 30.28 in 10.0 mi SW 5.8 mph - N/A   Overcast
8:15 PM 26.6 °F 20.0 °F 15.8 °F 64% 30.28 in 10.0 mi WSW 5.8 mph - N/A   Overcast
8:35 PM 24.8 °F 19.1 °F 15.8 °F 69% 30.28 in 10.0 mi WSW 4.6 mph - N/A   Overcast
8:55 PM 24.8 °F 16.1 °F 14.0 °F 64% 30.27 in 10.0 mi SSW 8.1 mph - N/A   Overcast
9:15 PM 24.8 °F 20.5 °F 14.0 °F 64% 30.27 in 10.0 mi West 3.5 mph - N/A   Overcast
9:35 PM 19.4 °F 11.5 °F 14.0 °F 80% 30.27 in 10.0 mi SW 5.8 mph - N/A   Mostly Cloudy
9:55 PM 19.4 °F - 14.0 °F 80% 30.28 in 10.0 mi Calm Calm - N/A   Mostly Cloudy
10:35 PM 17.6 °F - 14.0 °F 86% 30.28 in 10.0 mi Calm Calm - N/A   Overcast
10:55 PM 19.4 °F 14.3 °F 14.0 °F 80% 30.27 in 10.0 mi SSW 3.5 mph - N/A   Mostly Cloudy
11:15 PM 19.4 °F 14.3 °F 15.8 °F 86% 30.27 in 10.0 mi South 3.5 mph - N/A   Overcast
11:35 PM 23.0 °F 18.4 °F 15.8 °F 74% 30.27 in 10.0 mi SSW 3.5 mph - N/A   Overcast
11:55 PM 23.0 °F 17.0 °F 17.6 °F 80% 30.26 in 10.0 mi South 4.6 mph - N/A   Overcast